weather.gov     
National Weather Service

Regional Weather Roundup
NWS Homepage
This page is being discontinued on March 12, 2014.
The same data is available at this site. Please update your bookmarks.
Thank you, and we apologize for the inconvenience.
Please send an email to SR-SRH.Webmaster@noaa.gov with any concerns.


Current Version
Previous Version:    01  02  03  04  05  06  07  08  09  10  11  12  13  14  15  16  17  18  19  20  21  22  23  24  25  26  27  28  29  30  
   31  32  33  34  35  36  37  38  39  40  41  42  43  44  45  46  47  48  49  50  51  52  53  54  55  56  57  58  59  60  
[Printable]
959
ASUS44 KFWD 012215
RWRTX
NORTH TEXAS HOURLY WEATHER ROUNDUP
NATIONAL WEATHER SERVICE FORT WORTH TX
400 PM CST SUN FEB 01 2015

NOTE: "FAIR" INDICATES FEW OR NO CLOUDS BELOW 12,000 FEET WITH NO
SIGNIFICANT WEATHER AND/OR OBSTRUCTIONS TO VISIBILITY.

TXZ118-119-012300-
DALLAS/FORT WORTH METROPLEX

CITY           SKY/WX    TMP DP  RH WIND       PRES   REMARKS
DFW AIRPORT    PTSUNNY   50  34  54 NW23G35   30.07R
DALLAS LOVE    MOSUNNY   52  34  50 N18G31    30.07R
FTW MEACHAM    MOSUNNY   51  32  48 NW18G30   30.09R
DAL-EXECUTIVE  SUNNY     55  34  45 N20G28    30.05R
FTW-ALLIANCE   MOSUNNY   48  31  51 N23G29    30.10R
FTW-SPINKS     SUNNY     52  36  54 NW23G30   30.10R
ARLINGTON      SUNNY     53  32  44 NW25      30.07R
ADDISON        PTSUNNY   50  32  50 NW16G32   30.09R
MESQUITE       MOSUNNY   54  36  50 NW18G25   30.04R
LANCASTER      SUNNY     52  33  47 N16G25    30.06R
$$

TXZ091>094-102>105-117-120-121-131>134-012300-
NORTH CENTRAL TEXAS

CITY           SKY/WX    TMP DP  RH WIND       PRES   REMARKS
SHRMAN/DENISON PTSUNNY   45  33  65 NW20G29   30.09R WCI  37
GAINESVILLE    CLOUDY    44  29  55 NW26G32   30.11R WCI  35
BOWIE          SUNNY     44  29  57 NW21G26   30.11R WCI  35
BRIDGEPORT     MOSUNNY   48  34  57 NW20G25   30.13R
DECATUR        SUNNY     47  30  51 NW13G23   30.10R
DENTON         MOSUNNY   48  32  53 N23G31    30.09R
MCKINNEY       CLOUDY    47  32  56 NW20G29   30.08R WCI  40
GREENVILLE     CLOUDY    52  34  50 NW14G21   30.04R
ROCKWALL       PTSUNNY   51  36  56 N21       30.04R
TERRELL        SUNNY     54  32  43 N16G32    30.04R
WAXAHACHIE     SUNNY     55  39  56 NW16G22   30.05R
CLEBURNE       SUNNY     52  34  50 NW21G30   30.08
GRANBURY       MOSUNNY   54  38  55 NW16G23   30.11R
$$

TXZ083>090-098>101-113>116-127>130-139>142-154-155-012300-
WESTERN NORTH TEXAS

CITY           SKY/WX    TMP DP  RH WIND       PRES   REMARKS
WICHITA FALLS  MOSUNNY   47  26  44 N28G33    30.13S WCI  38
WF-KICKAPOO    SUNNY     40  20  45 NW18G28   30.14S WCI  31
VERNON         SUNNY     47  20  34 N18G28    30.16R
ABILENE        SUNNY     48  32  53 N15       30.15R
ABILENE-DYESS  SUNNY     48  33  56 N21G26    30.14R
BRECKENRIDGE   SUNNY     49  30  47 N16G26    30.15R
GRAHAM         SUNNY     46  31  55 N20G26    30.13R WCI  39
MINERAL WELLS  SUNNY     48  30  49 N23G30    30.11R
STEPHENVILLE   SUNNY     52  36  54 NW22G28   30.12R
COMANCHE       MOSUNNY   53  39  59 N20G29    30.10R
BROWNWOOD      SUNNY     54  36  50 N22G28    30.10R
COLEMAN        MOSUNNY   54  38  56 N17       30.11R
BRADY          PTSUNNY   55  39  54 N18       30.07R
$$

TXZ143>147-156>162-174-175-012300-
CENTRAL TEXAS

CITY           SKY/WX    TMP DP  RH WIND       PRES   REMARKS
WACO           SUNNY     57  40  52 NW17G26   30.03R
WACO-TSTC      SUNNY     59  43  55 N20G28    30.03R
WACO-MCGREGOR  MOSUNNY   57  43  58 N17G28    30.04R
HILLSBORO      SUNNY     55  36  47 NW25G31   30.04R
CORSICANA      SUNNY     58  40  51 NW20G26   30.02R
MEXIA          MOSUNNY   57  41  56 NW21G26   30.00R
HEARNE         PTSUNNY   61  50  68 NW20G26   30.00R
CAMERON        CLOUDY    59  49  68 N21G26    30.01R
TEMPLE         PTSUNNY   61  43  51 N18G28    30.02R
KILLEEN        MOSUNNY   58  44  57 N21G26    30.03R
KILLEEN-SKYLRK MOSUNNY   59  43  55 N18G24    30.00R
FORT HOOD      MOSUNNY   59  44  58 N18       30.03R
GATESVILLE     MOSUNNY   55  39  54 N14G22    30.06R
HAMILTON       SUNNY     56  39  52 MISG      30.06R
LAMPASAS       SUNNY     58  44  59 N14G21    30.04R
$$

TXZ095>097-106>112-122>126-135>138-148>153-164>167-012300-
EAST TEXAS

CITY           SKY/WX    TMP DP  RH WIND       PRES   REMARKS
PARIS          PTSUNNY   46  30  53 NW20G28   30.03R WCI  39
SULPHUR SPRNGS PTSUNNY   50  33  51 N25G31    30.04R
MOUNT PLEASANT MOSUNNY   53  37  54 NW21      30.00R
GILMER         MOSUNNY   53  39  58 NW15G25   29.97R
MINEOLA        SUNNY     55  37  50 NW14G21   30.01R
TYLER          SUNNY     56  40  55 NW22G31   29.96R
LONGVIEW       MOSUNNY   57  45  64 NW21G31   29.92R
MARSHALL       MOSUNNY   58  46  63 NW22G30   29.94R
ATHENS         SUNNY     54  39  58 NW10G20   29.98S
PALESTINE      CLOUDY    57  47  70 NW9G16    29.98R
JACKSONVILLE   CLOUDY    56  49  74 MISG      29.96R
HENDERSON      CLOUDY    56  46  67 NW13G20   29.95R
NACOGDOCHES    CLOUDY    61  50  67 NW16G26   29.93R
LUFKIN         CLOUDY    68  56  65 NW13G25   29.89R
$$

SUPPLEMENTAL OBSERVATIONS (CENTRAL)

CITY           SKY/WX    TMP DP  RH WIND       PRES   REMARKS
LAKE TEXOMA      N/A     43  28  56 NW29        N/A  WCI  32
CADDO GRASSLND   N/A     48  32  53 N12G23      N/A
PAT MAYSE LAKE   N/A     45  32  61 NW21        N/A  WCI  36
GREENVILLE       N/A     48  32  53 N16G26      N/A
CEDAR HILL       N/A     54  34  47 NW12        N/A
PALESTINE        N/A     57  45  62 NW15G22     N/A
MCGREGOR         N/A     57  39  51 N14G25      N/A
TEMPLE           N/A     57  45  62 N2G13       N/A
$$

SUPPLEMENTAL OBSERVATIONS (WEST)

CITY           SKY/WX    TMP DP  RH WIND       PRES   REMARKS
MILLERS CREEK    N/A     46  28  49 VRB16G30    N/A  WCI  40
POSSUM KINGDOM   N/A     46  30  53 N15G23      N/A
LBJ GRASSLAND    N/A     48  30  49 NW12G24     N/A
GRANBURY         N/A     52  36  54 NW20G26     N/A
HAMBY            N/A     46  32  57 VRB12G22    N/A
IVIE RESERVOIR   N/A     54  36  50 N20G26      N/A
COLORADO BEND    N/A     55  41  58 VRB9G17     N/A
$$

SUPPLEMENTAL OBSERVATIONS (EAST)

CITY           SKY/WX    TMP DP  RH WIND       PRES   REMARKS
TEXARKANA        N/A     54  37  54 W13G23      N/A
LINDEN           N/A     54  37  54 NW15G23     N/A
CADDO LAKE       N/A     57  43  58 NW12G23     N/A
N SABINE NF      N/A     61  52  72 MISG        N/A
$$

SUPPLEMENTAL OBSERVATIONS ARE A COLLECTION OF AUTOMATED INSTRUMENTS
THAT ARE MAINTAINED BY A VARIETY OF FEDERAL AND STATE AGENCIES.
CERTAIN ELEMENTS...SUCH AS HUMIDITY VALUES AND SUSTAINED WIND
SPEEDS...MAY BE APPROXIMATED.





U.S. Dept. of Commerce
NOAA National Weather Service
1325 East West Highway
Silver Spring, MD 20910
E-mail: w-nws.webmaster@noaa.gov
Page last modified: May 16, 2007
NATIONAL WEATHER SERVICE: for Safety, for Work, for Fun - FOR LIFE